Weather History for LLET - November, 2012

Change the Weather History Date:

Saturday, November 3, 2012

  Actual Average Record
Temperature  
Mean Temperature 82 °F -  
Max Temperature 88 °F 78 °F 93 °F (2003)
Min Temperature 76 °F 60 °F 59 °F (2011)
Cooling Degree Days 17    
Growing Degree Days 32 (Base 50)    
Moisture  
Dew Point 62 °F    
Average Humidity 47    
Maximum Humidity 61    
Minimum Humidity 33    
Precipitation  
Precipitation 0.00 in 0.01 in - ()
Sea Level Pressure  
Sea Level Pressure 29.91 in    
Wind  
Wind Speed 4 mph ()    
Max Wind Speed 10 mph    
Max Gust Speed -    
Visibility 10.5 miles    
Events Rain    
Averages and records for this station are not official NWS values.
T = Trace of Precipitation, MM = Missing Value Source: Averaged Metar Reports

Daily Weather History Graph

Daily Weather History Graph

Search for Another Location

Airport or City:

Trip Planner

Search our weather history database for the weather conditions in past years. The results will help you decide how hot, cold, wet, or windy it might be!

Date:

Astronomy

Nov. 03, 2012 Rise Set
Actual Time 5:55 AM IST 4:51 PM IST
Civil Twilight 5:30 AM IST 5:16 PM IST
Nautical Twilight 5:02 AM IST 5:44 PM IST
Astronomical Twilight 4:34 AM IST 6:12 PM IST
Moon 8:21 PM IST (11/3) 9:36 AM IST (11/3)
Length of Visible Light 11h 46m
Length of Day
10h 56m
Waning Gibbous, 82% of the Moon is Illuminated
Nov 3
Waning Gibbous
Nov 7
Last Quarter
Nov 14
New
Nov 20
First Quarter
Nov 28
Full

Hourly Weather History & Observations

Time (IST) Temp. Heat Index Dew Point Humidity Pressure Visibility Wind Dir Wind Speed Gust Speed Precip Events Conditions
2:00 AM 81 °F - 60 °F 38% 29.87 in 12 mi NE 2.3 mph - -  
6:50 AM 77.0 °F - 62.6 °F 61% 29.89 in - NNE 6.9 mph - N/A   Clear
7:50 AM 78.8 °F - 62.6 °F 57% 29.92 in - NE 10.4 mph - N/A   Clear
8:00 AM 80 °F - 61 °F 43% 29.94 in - NNW 3.5 mph - -  
8:50 AM 82.4 °F 83.4 °F 62.6 °F 51% 29.95 in - NNE 3.5 mph - N/A   Clear
9:50 AM 82.4 °F 83.4 °F 62.6 °F 51% 29.95 in - NE 4.6 mph - N/A   Clear
10:50 AM 84.2 °F 85.0 °F 62.6 °F 48% 29.95 in - East 3.5 mph - N/A   Clear
11:50 AM 86.0 °F 86.6 °F 62.6 °F 45% 29.92 in - South 3.5 mph - N/A   Clear
12:50 PM 87.8 °F 87.6 °F 60.8 °F 40% 29.89 in - SSW 10.4 mph - N/A   Clear
1:50 PM 87.8 °F 87.6 °F 60.8 °F 40% 29.92 in - South 10.4 mph - N/A   Clear
2:00 PM 86 °F - 61 °F 33% 29.91 in - South 6.9 mph - -  
2:50 PM 84.2 °F 85.6 °F 64.4 °F 51% 29.89 in - South 6.9 mph - N/A   Clear
3:50 PM 84.2 °F 85.0 °F 62.6 °F 48% 29.89 in - South 3.5 mph - N/A   Clear
4:50 PM 84.2 °F 85.0 °F 62.6 °F 48% 29.89 in - South 4.6 mph - N/A   Clear
5:50 PM 84.2 °F 85.0 °F 62.6 °F 48% 29.89 in - SSW 3.5 mph - N/A   Clear
6:50 PM 80.6 °F 81.8 °F 62.6 °F 54% 29.89 in - North 3.5 mph - N/A   Clear
7:50 PM 82.4 °F 82.5 °F 59.0 °F 45% 29.89 in - NNE 3.5 mph - N/A   Clear
8:00 PM 81 °F - 59 °F 36% 29.91 in 9 mi NW 1.2 mph - - Rain Light Rain
8:50 PM 78.8 °F - 62.6 °F 57% 29.92 in - Variable 1.2 mph - N/A   Clear
9:50 PM 82.4 °F 82.0 °F 57.2 °F 42% 29.92 in - NNE 3.5 mph - N/A   Clear